QPF
0.00 0.00 0.00 0.00 0.00 0.00 0.00 0.00 0.01 0.01 0.01 0.01 0.01 0.01 0.01 0.00 0.00 0.01 0.01 0.01 0.01 0.01 0.02 0.02 0.02 0.02 0.02 0.03 0.03 0.04 0.04 0.05 0.04 0.02 0.01 0.01 0.01 0.01 0.01 0.01 0.01 0.02 0.02
0.00 0.00 0.00 0.00 0.00 0.00 0.00 0.00 0.01 0.01 0.01 0.01 0.01 0.01 0.01 0.01 0.01 0.01 0.01 0.01 0.02 0.02 0.02 0.02 0.02 0.02 0.02 0.02 0.03 0.03 0.04 0.04 0.04 0.03 0.01 0.01 0.01 0.01 0.02 0.02 0.02 0.02 0.02
0.00 0.00 0.01 0.01 0.01 0.01 0.01 0.01 0.01 0.01 0.01 0.01 0.01 0.01 0.01 0.01 0.01 0.01 0.01 0.02 0.01 0.01 0.01 0.01 0.01 0.02 0.02 0.02 0.02 0.03 0.03 0.03 0.04 0.04 0.03 0.02 0.02 0.02 0.02 0.03 0.03 0.03 0.02
0.00 0.00 0.01 0.01 0.01 0.01 0.01 0.01 0.01 0.01 0.01 0.01 0.01 0.01 0.01 0.01 0.01 0.02 0.02 0.02 0.02 0.01 0.01 0.01 0.01 0.01 0.02 0.02 0.03 0.03 0.03 0.04 0.05 0.05 0.05 0.04 0.04 0.04 0.05 0.04 0.03 0.02 0.02
0.00 0.00 0.00 0.00 0.01 0.01 0.01 0.01 0.01 0.01 0.01 0.01 0.01 0.01 0.01 0.01 0.01 0.02 0.02 0.02 0.02 0.02 0.02 0.01 0.01 0.01 0.02 0.03 0.03 0.03 0.04 0.05 0.06 0.06 0.06 0.05 0.05 0.05 0.04 0.03 0.03 0.03 0.02
0.00 0.00 0.00 0.00 0.01 0.01 0.01 0.02 0.01 0.01 0.01 0.01 0.01 0.01 0.01 0.01 0.01 0.02 0.02 0.03 0.04 0.04 0.03 0.03 0.03 0.03 0.03 0.03 0.03 0.04 0.04 0.06 0.06 0.06 0.07 0.06 0.05 0.05 0.05 0.05 0.05 0.05 0.04
0.00 0.00 0.00 0.00 0.00 0.01 0.01 0.02 0.02 0.02 0.02 0.01 0.01 0.01 0.01 0.01 0.01 0.02 0.02 0.03 0.04 0.05 0.05 0.04 0.04 0.04 0.04 0.04 0.05 0.05 0.06 0.08 0.08 0.08 0.07 0.06 0.06 0.06 0.07 0.07 0.07 0.07 0.05
0.00 0.00 0.00 0.00 0.01 0.01 0.01 0.01 0.02 0.02 0.02 0.02 0.02 0.02 0.02 0.02 0.02 0.01 0.02 0.03 0.03 0.04 0.04 0.04 0.05 0.05 0.05 0.05 0.05 0.06 0.06 0.07 0.08 0.08 0.08 0.07 0.07 0.07 0.07 0.08 0.09 0.10 0.10
0.00 0.00 0.00 0.00 0.00 0.01 0.01 0.02 0.02 0.02 0.02 0.03 0.03 0.03 0.03 0.03 0.03 0.03 0.03 0.04 0.06 0.06 0.04 0.04 0.05 0.05 0.07 0.07 0.07 0.07 0.07 0.07 0.08 0.07 0.08 0.09 0.10 0.10 0.11 0.12 0.14 0.15 0.13
0.00 0.00 0.00 0.00 0.01 0.01 0.01 0.02 0.03 0.04 0.04 0.03 0.02 0.02 0.03 0.03 0.04 0.04 0.05 0.06 0.07 0.07 0.06 0.06 0.06 0.06 0.07 0.08 0.09 0.10 0.10 0.08 0.06 0.06 0.07 0.08 0.08 0.10 0.13 0.12 0.12 0.15 0.15
0.00 0.00 0.00 0.01 0.01 0.01 0.01 0.02 0.02 0.03 0.03 0.03 0.03 0.02 0.03 0.03 0.04 0.04 0.05 0.05 0.06 0.06 0.05 0.05 0.05 0.07 0.07 0.08 0.08 0.09 0.10 0.10 0.09 0.08 0.08 0.08 0.08 0.09 0.11 0.12 0.13 0.14 0.15
0.01 0.01 0.01 0.01 0.01 0.01 0.01 0.01 0.02 0.02 0.02 0.02 0.02 0.03 0.03 0.03 0.04 0.05 0.05 0.05 0.05 0.05 0.05 0.04 0.04 0.06 0.06 0.06 0.08 0.09 0.10 0.10 0.09 0.09 0.09 0.09 0.09 0.09 0.10 0.11 0.12 0.13 0.12
0.01 0.01 0.01 0.01 0.01 0.01 0.01 0.01 0.01 0.01 0.02 0.02 0.02 0.02 0.02 0.02 0.02 0.03 0.03 0.04 0.04 0.03 0.04 0.04 0.05 0.05 0.05 0.05 0.06 0.06 0.07 0.07 0.07 0.08 0.08 0.08 0.08 0.08 0.10 0.11 0.11 0.11 0.11
0.01 0.01 0.01 0.01 0.01 0.01 0.01 0.01 0.01 0.01 0.01 0.01 0.02 0.02 0.02 0.02 0.02 0.02 0.02 0.02 0.02 0.03 0.03 0.04 0.04 0.04 0.04 0.04 0.05 0.05 0.05 0.05 0.07 0.07 0.07 0.07 0.08 0.09 0.09 0.08 0.08 0.09 0.09
0.01 0.01 0.01 0.01 0.01 0.01 0.01 0.01 0.01 0.01 0.01 0.01 0.02 0.02 0.02 0.02 0.02 0.02 0.02 0.02 0.02 0.02 0.03 0.02 0.03 0.03 0.03 0.04 0.03 0.04 0.04 0.05 0.06 0.06 0.07 0.08 0.08 0.08 0.08 0.09 0.09 0.09 0.09
0.00 0.00 0.00 0.00 0.00 0.00 0.00 0.00 0.01 0.01 0.01 0.01 0.01 0.01 0.02 0.02 0.02 0.02 0.02 0.02 0.02 0.02 0.03 0.02 0.03 0.03 0.03 0.04 0.04 0.04 0.04 0.05 0.05 0.06 0.06 0.06 0.06 0.07 0.07 0.08 0.08 0.09 0.09
0.00 0.00 0.00 0.00 0.00 0.00 0.00 0.00 0.00 0.00 0.00 0.01 0.01 0.01 0.01 0.01 0.01 0.02 0.02 0.02 0.02 0.02 0.03 0.03 0.03 0.04 0.04 0.04 0.04 0.04 0.05 0.05 0.05 0.05 0.05 0.06 0.06 0.07 0.07 0.08 0.08 0.09 0.10
0.01 0.01 0.01 0.01 0.01 0.00 0.00 0.00 0.00 0.00 0.00 0.00 0.01 0.01 0.01 0.01 0.01 0.02 0.02 0.02 0.02 0.02 0.03 0.03 0.03 0.03 0.04 0.04 0.04 0.04 0.05 0.05 0.06 0.07 0.08 0.08 0.09 0.09 0.10 0.10 0.10 0.11 0.11
0.01 0.01 0.01 0.01 0.00 0.00 0.00 0.00 0.00 0.01 0.01 0.01 0.01 0.01 0.01 0.02 0.02 0.02 0.03 0.03 0.03 0.03 0.03 0.04 0.04 0.04 0.04 0.05 0.05 0.05 0.05 0.06 0.07 0.09 0.10 0.10 0.11 0.11 0.12 0.12 0.12 0.14 0.14
0.01 0.00 0.00 0.00 0.00 0.00 0.00 0.00 0.01 0.01 0.01 0.01 0.01 0.02 0.02 0.02 0.02 0.02 0.03 0.03 0.04 0.04 0.05 0.05 0.05 0.06 0.06 0.06 0.06 0.06 0.07 0.07 0.08 0.09 0.10 0.11 0.11 0.12 0.12 0.12 0.12 0.13 0.13
0.00 0.00 0.00 0.00 0.00 0.00 0.00 0.01 0.01 0.01 0.01 0.01 0.01 0.02 0.02 0.02 0.02 0.02 0.02 0.03 0.04 0.04 0.05 0.05 0.05 0.06 0.06 0.06 0.07 0.07 0.08 0.08 0.09 0.09 0.10 0.10 0.11 0.12 0.13 0.13 0.12 0.12 0.12
0.00 0.00 0.00 0.00 0.00 0.00 0.00 0.00 0.01 0.01 0.01 0.01 0.01 0.01 0.02 0.02 0.02 0.02 0.02 0.03 0.03 0.04 0.04 0.05 0.05 0.05 0.06 0.06 0.07 0.08 0.08 0.09 0.09 0.10 0.10 0.11 0.11 0.12 0.12 0.13 0.13 0.13 0.13
0.00 0.00 0.00 0.00 0.00 0.00 0.00 0.00 0.00 0.01 0.01 0.01 0.01 0.01 0.01 0.01 0.01 0.02 0.02 0.03 0.03 0.03 0.04 0.05 0.05 0.05 0.06 0.06 0.07 0.08 0.09 0.09 0.09 0.10 0.11 0.12 0.13 0.13 0.13 0.13 0.13 0.13 0.13
0.00 0.00 0.00 0.00 0.00 0.00 0.00 0.00 0.00 0.01 0.01 0.01 0.01 0.01 0.01 0.01 0.02 0.02 0.02 0.03 0.03 0.03 0.04 0.04 0.05 0.05 0.05 0.06 0.06 0.07 0.08 0.08 0.09 0.10 0.11 0.12 0.12 0.12 0.12 0.12 0.12 0.12 0.12
0.01 0.01 0.01 0.01 0.01 0.01 0.01 0.01 0.01 0.01 0.01 0.01 0.01 0.01 0.01 0.01 0.02 0.02 0.02 0.03 0.03 0.03 0.04 0.04 0.04 0.05 0.05 0.05 0.06 0.06 0.07 0.08 0.09 0.09 0.10 0.11 0.11 0.11 0.11 0.11 0.11 0.11 0.11
0.01 0.01 0.01 0.01 0.01 0.01 0.01 0.01 0.01 0.01 0.01 0.01 0.01 0.01 0.01 0.02 0.02 0.02 0.02 0.02 0.03 0.03 0.03 0.03 0.04 0.04 0.04 0.05 0.06 0.06 0.07 0.08 0.08 0.09 0.09 0.09 0.09 0.09 0.09 0.09 0.09 0.09 0.10
MSLP
1009.68 1010.40 1011.11 1011.78 1012.41 1012.99 1013.53 1014.03 1014.51 1014.93 1015.30 1015.59 1015.78 1015.87 1015.86 1015.77 1015.63 1015.48 1015.35 1015.28 1015.29 1015.36 1015.47 1015.60 1015.70 1015.73 1015.66 1015.48 1015.19 1014.83 1014.43 1014.04 1013.69 1013.41 1013.23 1013.13 1013.11 1013.13 1013.17 1013.20 1013.21 1013.18 1013.14
1009.95 1010.65 1011.34 1011.99 1012.61 1013.18 1013.72 1014.23 1014.70 1015.12 1015.48 1015.76 1015.93 1015.98 1015.93 1015.80 1015.60 1015.38 1015.17 1015.01 1014.92 1014.89 1014.91 1014.95 1014.97 1014.94 1014.83 1014.61 1014.31 1013.94 1013.53 1013.12 1012.75 1012.45 1012.23 1012.10 1012.04 1012.03 1012.04 1012.06 1012.07 1012.06 1012.03
1010.46 1011.13 1011.77 1012.39 1012.97 1013.51 1014.02 1014.51 1014.95 1015.35 1015.69 1015.94 1016.09 1016.14 1016.06 1015.90 1015.67 1015.41 1015.15 1014.92 1014.75 1014.64 1014.58 1014.54 1014.49 1014.39 1014.23 1013.98 1013.66 1013.27 1012.84 1012.40 1011.99 1011.64 1011.36 1011.16 1011.04 1010.97 1010.94 1010.93 1010.92 1010.92 1010.91
1011.11 1011.72 1012.31 1012.87 1013.39 1013.88 1014.35 1014.78 1015.19 1015.55 1015.85 1016.09 1016.22 1016.25 1016.18 1016.02 1015.79 1015.51 1015.24 1014.98 1014.77 1014.60 1014.47 1014.36 1014.25 1014.10 1013.90 1013.62 1013.26 1012.84 1012.38 1011.90 1011.43 1011.00 1010.63 1010.34 1010.11 1009.96 1009.86 1009.80 1009.77 1009.77 1009.77
1011.77 1012.33 1012.85 1013.35 1013.81 1014.23 1014.63 1015.00 1015.35 1015.66 1015.93 1016.13 1016.26 1016.29 1016.23 1016.09 1015.89 1015.64 1015.38 1015.12 1014.90 1014.70 1014.54 1014.39 1014.23 1014.04 1013.80 1013.49 1013.10 1012.64 1012.13 1011.59 1011.04 1010.51 1010.03 1009.61 1009.27 1009.00 1008.82 1008.69 1008.63 1008.62 1008.64
1012.37 1012.87 1013.34 1013.77 1014.15 1014.51 1014.83 1015.13 1015.41 1015.67 1015.90 1016.07 1016.19 1016.23 1016.20 1016.10 1015.94 1015.74 1015.52 1015.30 1015.08 1014.88 1014.70 1014.53 1014.34 1014.11 1013.84 1013.49 1013.07 1012.57 1012.01 1011.39 1010.75 1010.12 1009.51 1008.97 1008.49 1008.10 1007.81 1007.61 1007.51 1007.47 1007.50
1012.84 1013.31 1013.73 1014.10 1014.42 1014.71 1014.97 1015.20 1015.42 1015.62 1015.79 1015.94 1016.04 1016.10 1016.09 1016.04 1015.93 1015.79 1015.62 1015.43 1015.24 1015.06 1014.87 1014.67 1014.46 1014.20 1013.89 1013.50 1013.04 1012.50 1011.88 1011.20 1010.48 1009.74 1009.02 1008.34 1007.74 1007.24 1006.84 1006.56 1006.39 1006.33 1006.35
1013.17 1013.63 1014.02 1014.36 1014.64 1014.87 1015.07 1015.25 1015.40 1015.54 1015.67 1015.78 1015.86 1015.92 1015.93 1015.91 1015.85 1015.76 1015.63 1015.48 1015.31 1015.13 1014.93 1014.71 1014.45 1014.15 1013.80 1013.37 1012.87 1012.28 1011.61 1010.87 1010.09 1009.27 1008.46 1007.68 1006.97 1006.36 1005.87 1005.50 1005.27 1005.17 1005.17
1013.40 1013.86 1014.25 1014.57 1014.83 1015.04 1015.20 1015.32 1015.42 1015.51 1015.58 1015.64 1015.70 1015.73 1015.75 1015.75 1015.71 1015.65 1015.55 1015.41 1015.25 1015.05 1014.82 1014.55 1014.24 1013.88 1013.46 1012.98 1012.43 1011.80 1011.09 1010.32 1009.49 1008.62 1007.75 1006.90 1006.12 1005.43 1004.85 1004.41 1004.12 1003.96 1003.93
1013.56 1014.05 1014.46 1014.79 1015.05 1015.24 1015.38 1015.46 1015.52 1015.54 1015.56 1015.57 1015.57 1015.58 1015.57 1015.56 1015.52 1015.46 1015.36 1015.22 1015.03 1014.79 1014.50 1014.16 1013.78 1013.34 1012.85 1012.29 1011.69 1011.01 1010.27 1009.48 1008.63 1007.74 1006.85 1005.97 1005.14 1004.39 1003.76 1003.25 1002.89 1002.67 1002.59
1013.73 1014.25 1014.69 1015.05 1015.32 1015.51 1015.63 1015.68 1015.69 1015.66 1015.61 1015.55 1015.49 1015.45 1015.40 1015.36 1015.30 1015.22 1015.09 1014.92 1014.68 1014.38 1014.02 1013.59 1013.10 1012.56 1011.97 1011.34 1010.67 1009.95 1009.18 1008.37 1007.52 1006.65 1005.75 1004.87 1004.02 1003.24 1002.56 1001.99 1001.56 1001.28 1001.14
1013.94 1014.50 1014.97 1015.35 1015.64 1015.83 1015.94 1015.96 1015.92 1015.83 1015.71 1015.58 1015.45 1015.34 1015.24 1015.15 1015.05 1014.93 1014.77 1014.55 1014.26 1013.88 1013.43 1012.90 1012.30 1011.65 1010.96 1010.24 1009.49 1008.71 1007.92 1007.09 1006.25 1005.38 1004.50 1003.62 1002.77 1001.97 1001.25 1000.63 1000.13 999.77 999.56
1014.22 1014.81 1015.30 1015.70 1016.00 1016.19 1016.28 1016.26 1016.17 1016.02 1015.83 1015.62 1015.42 1015.24 1015.08 1014.94 1014.80 1014.64 1014.44 1014.18 1013.83 1013.39 1012.85 1012.22 1011.52 1010.76 1009.97 1009.14 1008.31 1007.47 1006.63 1005.78 1004.92 1004.05 1003.17 1002.30 1001.43 1000.60 999.84 999.16 998.59 998.16 997.87
1014.57 1015.16 1015.67 1016.08 1016.37 1016.55 1016.61 1016.56 1016.41 1016.19 1015.93 1015.65 1015.38 1015.14 1014.92 1014.74 1014.57 1014.38 1014.15 1013.86 1013.47 1012.98 1012.38 1011.68 1010.90 1010.04 1009.14 1008.22 1007.30 1006.39 1005.48 1004.58 1003.68 1002.78 1001.87 1000.95 1000.05 999.17 998.34 997.59 996.95 996.44 996.08
1014.97 1015.55 1016.04 1016.44 1016.72 1016.88 1016.90 1016.81 1016.60 1016.32 1015.99 1015.65 1015.32 1015.02 1014.77 1014.55 1014.36 1014.17 1013.94 1013.64 1013.25 1012.74 1012.11 1011.37 1010.53 1009.61 1008.63 1007.62 1006.61 1005.60 1004.60 1003.61 1002.63 1001.64 1000.65 999.65 998.66 997.70 996.78 995.94 995.21 994.62 994.21
1015.38 1015.93 1016.40 1016.77 1017.02 1017.14 1017.13 1016.99 1016.73 1016.39 1016.01 1015.61 1015.23 1014.90 1014.62 1014.40 1014.21 1014.02 1013.82 1013.54 1013.18 1012.69 1012.07 1011.33 1010.46 1009.50 1008.47 1007.39 1006.28 1005.17 1004.05 1002.93 1001.81 1000.69 999.55 998.41 997.29 996.19 995.15 994.20 993.38 992.72 992.26
1015.76 1016.27 1016.70 1017.04 1017.26 1017.34 1017.28 1017.09 1016.80 1016.41 1015.98 1015.55 1015.14 1014.79 1014.50 1014.28 1014.11 1013.95 1013.78 1013.56 1013.24 1012.80 1012.23 1011.51 1010.66 1009.69 1008.62 1007.48 1006.29 1005.05 1003.79 1002.51 1001.21 999.89 998.56 997.22 995.91 994.64 993.44 992.37 991.45 990.73 990.24
1016.08 1016.54 1016.93 1017.23 1017.41 1017.45 1017.36 1017.14 1016.80 1016.39 1015.93 1015.47 1015.05 1014.69 1014.41 1014.20 1014.05 1013.93 1013.81 1013.64 1013.38 1013.00 1012.49 1011.82 1011.00 1010.05 1008.97 1007.78 1006.49 1005.14 1003.72 1002.26 1000.74 999.19 997.61 996.04 994.50 993.02 991.65 990.44 989.43 988.66 988.17
1016.31 1016.72 1017.07 1017.33 1017.47 1017.48 1017.35 1017.11 1016.75 1016.32 1015.86 1015.40 1014.97 1014.62 1014.34 1014.15 1014.02 1013.94 1013.85 1013.73 1013.52 1013.20 1012.75 1012.14 1011.36 1010.43 1009.34 1008.11 1006.75 1005.28 1003.70 1002.04 1000.29 998.49 996.66 994.83 993.05 991.35 989.81 988.46 987.37 986.57 986.10
1016.44 1016.80 1017.10 1017.31 1017.42 1017.40 1017.26 1017.00 1016.64 1016.22 1015.76 1015.31 1014.90 1014.56 1014.30 1014.12 1014.00 1013.93 1013.86 1013.76 1013.59 1013.31 1012.90 1012.33 1011.59 1010.68 1009.59 1008.33 1006.90 1005.32 1003.60 1001.75 999.79 997.75 995.67 993.60 991.58 989.69 987.99 986.53 985.37 984.56 984.14
1016.44 1016.75 1017.00 1017.18 1017.25 1017.21 1017.06 1016.80 1016.45 1016.05 1015.62 1015.19 1014.81 1014.49 1014.25 1014.07 1013.96 1013.88 1013.81 1013.71 1013.54 1013.28 1012.88 1012.33 1011.61 1010.70 1009.61 1008.32 1006.84 1005.18 1003.33 1001.33 999.20 996.97 994.69 992.41 990.21 988.16 986.33 984.78 983.59 982.79 982.43
1016.31 1016.57 1016.78 1016.91 1016.95 1016.89 1016.73 1016.49 1016.17 1015.80 1015.42 1015.04 1014.70 1014.41 1014.18 1014.02 1013.89 1013.80 1013.70 1013.57 1013.38 1013.08 1012.67 1012.11 1011.39 1010.48 1009.38 1008.07 1006.56 1004.84 1002.92 1000.82 998.58 996.22 993.80 991.39 989.08 986.93 985.02 983.44 982.24 981.47 981.17
1016.06 1016.26 1016.41 1016.50 1016.51 1016.44 1016.29 1016.06 1015.79 1015.48 1015.15 1014.84 1014.55 1014.31 1014.11 1013.95 1013.81 1013.68 1013.54 1013.36 1013.11 1012.77 1012.31 1011.72 1010.97 1010.05 1008.94 1007.62 1006.10 1004.37 1002.43 1000.31 998.03 995.63 993.17 990.73 988.38 986.21 984.30 982.73 981.55 980.82 980.58
1015.70 1015.84 1015.93 1015.98 1015.96 1015.87 1015.73 1015.54 1015.32 1015.08 1014.83 1014.60 1014.38 1014.19 1014.03 1013.88 1013.73 1013.58 1013.39 1013.14 1012.82 1012.41 1011.89 1011.25 1010.46 1009.52 1008.41 1007.10 1005.60 1003.90 1002.01 999.93 997.70 995.36 992.97 990.58 988.29 986.19 984.34 982.82 981.70 981.02 980.81
1015.27 1015.34 1015.38 1015.38 1015.33 1015.25 1015.12 1014.98 1014.82 1014.65 1014.49 1014.34 1014.21 1014.09 1013.97 1013.84 1013.69 1013.51 1013.27 1012.96 1012.57 1012.09 1011.50 1010.80 1009.97 1009.01 1007.90 1006.63 1005.18 1003.56 1001.77 999.81 997.72 995.52 993.27 991.05 988.91 986.94 985.22 983.81 982.77 982.14 981.95
1014.79 1014.81 1014.80 1014.76 1014.70 1014.61 1014.52 1014.42 1014.32 1014.24 1014.17 1014.11 1014.06 1014.00 1013.94 1013.84 1013.69 1013.49 1013.21 1012.84 1012.39 1011.84 1011.19 1010.43 1009.58 1008.60 1007.51 1006.29 1004.93 1003.43 1001.78 1000.01 998.11 996.14 994.12 992.12 990.21 988.45 986.90 985.64 984.70 984.13 983.94
Thickness
5609 5610 5611 5612 5611 5611 5610 5609 5608 5608 5607 5607 5607 5606 5606 5605 5604 5603 5603 5603 5602 5601 5600 5598 5598 5596 5594 5592 5590 5588 5586 5584 5589 5602 5598 5594 5589 5586 5584 5580 5578 5576 5575
5593 5594 5595 5595 5595 5595 5595 5595 5594 5594 5594 5594 5594 5594 5594 5594 5593 5593 5593 5593 5592 5592 5591 5589 5589 5587 5585 5584 5582 5581 5579 5577 5577 5585 5589 5585 5582 5580 5577 5574 5571 5569 5567
5576 5577 5577 5577 5578 5578 5578 5578 5578 5579 5579 5579 5579 5580 5580 5581 5581 5581 5580 5581 5581 5582 5581 5580 5580 5577 5577 5575 5574 5573 5572 5570 5568 5570 5577 5576 5574 5570 5566 5564 5562 5560 5558
5558 5559 5559 5559 5560 5560 5561 5561 5562 5562 5563 5564 5564 5565 5565 5566 5567 5567 5567 5568 5570 5571 5571 5570 5570 5568 5568 5567 5565 5564 5562 5561 5560 5560 5563 5564 5563 5560 5554 5553 5551 5550 5549
5540 5541 5541 5541 5542 5543 5543 5544 5545 5546 5547 5548 5549 5549 5550 5551 5552 5552 5553 5555 5557 5559 5560 5560 5560 5559 5558 5556 5555 5555 5552 5551 5550 5550 5552 5553 5553 5547 5545 5544 5542 5541 5540
5522 5523 5523 5523 5524 5525 5525 5526 5527 5529 5530 5532 5532 5533 5534 5536 5536 5536 5536 5539 5542 5544 5546 5548 5548 5547 5546 5544 5543 5542 5541 5541 5542 5541 5542 5543 5546 5543 5539 5534 5530 5527 5529
5503 5503 5504 5505 5507 5508 5509 5509 5511 5512 5514 5515 5516 5517 5518 5520 5520 5520 5520 5522 5526 5530 5532 5533 5535 5535 5533 5534 5533 5532 5531 5530 5529 5529 5531 5535 5534 5533 5527 5523 5521 5520 5523
5484 5484 5485 5486 5488 5490 5491 5492 5493 5495 5496 5498 5499 5500 5501 5504 5503 5504 5504 5507 5511 5514 5515 5516 5518 5521 5520 5519 5520 5522 5523 5523 5520 5517 5518 5523 5523 5522 5518 5515 5513 5509 5508
5464 5465 5466 5467 5469 5471 5473 5474 5475 5477 5479 5480 5481 5482 5484 5486 5486 5487 5488 5491 5495 5498 5499 5500 5501 5503 5504 5501 5502 5506 5509 5511 5509 5507 5506 5508 5509 5509 5505 5500 5497 5494 5495
5446 5447 5448 5449 5450 5452 5453 5454 5456 5458 5460 5461 5463 5464 5465 5467 5469 5469 5469 5472 5477 5481 5483 5484 5483 5484 5486 5485 5485 5487 5490 5494 5492 5492 5493 5494 5494 5494 5493 5490 5488 5485 5483
5426 5428 5429 5430 5431 5432 5433 5435 5436 5438 5441 5443 5445 5447 5447 5448 5450 5451 5451 5452 5455 5460 5463 5466 5467 5467 5468 5468 5467 5469 5471 5471 5471 5473 5475 5477 5478 5479 5479 5478 5475 5473 5472
5408 5409 5411 5412 5412 5414 5414 5415 5416 5418 5420 5424 5427 5429 5430 5430 5431 5432 5432 5432 5433 5436 5442 5445 5448 5450 5451 5451 5451 5453 5452 5451 5451 5453 5455 5458 5460 5461 5461 5461 5460 5459 5458
5389 5391 5392 5393 5394 5395 5395 5396 5397 5398 5400 5404 5406 5409 5412 5412 5412 5413 5413 5414 5415 5416 5420 5424 5428 5431 5433 5434 5435 5435 5433 5432 5432 5433 5436 5439 5441 5441 5440 5440 5441 5441 5440
5371 5373 5374 5375 5376 5376 5376 5377 5377 5378 5380 5382 5384 5387 5389 5392 5392 5393 5394 5394 5395 5397 5400 5404 5408 5412 5413 5415 5416 5416 5415 5413 5412 5414 5416 5417 5418 5419 5420 5421 5421 5421 5420
5355 5355 5355 5356 5356 5357 5359 5359 5359 5360 5359 5361 5362 5363 5365 5370 5372 5372 5372 5374 5375 5377 5379 5383 5387 5390 5393 5394 5394 5395 5394 5393 5393 5393 5394 5396 5398 5399 5400 5401 5402 5403 5403
5338 5337 5336 5337 5338 5338 5340 5341 5342 5342 5344 5344 5344 5345 5347 5348 5352 5353 5353 5354 5355 5356 5357 5359 5362 5364 5366 5369 5370 5371 5372 5372 5372 5372 5373 5375 5377 5379 5380 5381 5382 5384 5386
5317 5318 5317 5318 5318 5318 5318 5319 5322 5325 5326 5326 5326 5327 5327 5329 5331 5333 5334 5334 5334 5334 5333 5335 5337 5339 5341 5343 5344 5346 5347 5349 5350 5351 5352 5355 5356 5358 5360 5362 5364 5366 5368
5297 5297 5297 5296 5296 5296 5297 5297 5298 5300 5303 5306 5306 5306 5307 5309 5310 5311 5311 5312 5312 5311 5310 5311 5313 5314 5316 5318 5320 5322 5324 5327 5329 5331 5332 5334 5336 5338 5341 5344 5346 5348 5350
5278 5278 5277 5276 5276 5276 5276 5277 5277 5278 5280 5282 5284 5286 5285 5286 5287 5287 5286 5284 5285 5287 5287 5287 5288 5290 5292 5294 5297 5298 5301 5304 5308 5311 5314 5316 5318 5321 5324 5327 5329 5331 5333
5258 5258 5257 5255 5255 5255 5255 5256 5256 5257 5258 5260 5262 5263 5264 5264 5264 5264 5262 5262 5262 5263 5265 5265 5266 5267 5269 5272 5275 5277 5280 5284 5288 5292 5296 5299 5302 5305 5308 5311 5313 5315 5317
5238 5237 5237 5235 5234 5234 5234 5234 5235 5235 5236 5238 5240 5242 5245 5242 5242 5241 5241 5241 5241 5242 5243 5244 5246 5248 5249 5251 5254 5257 5260 5265 5269 5273 5278 5282 5286 5289 5292 5294 5296 5299 5300
5219 5218 5217 5216 5215 5214 5214 5215 5215 5216 5217 5218 5221 5222 5223 5221 5221 5222 5222 5223 5223 5224 5224 5226 5227 5229 5231 5233 5235 5239 5242 5247 5251 5256 5260 5265 5270 5274 5276 5278 5280 5282 5283
5201 5200 5199 5198 5197 5196 5196 5196 5197 5198 5199 5200 5201 5203 5203 5203 5203 5204 5205 5206 5207 5208 5209 5210 5212 5214 5215 5217 5219 5222 5225 5230 5235 5239 5243 5248 5253 5257 5260 5263 5265 5265 5266
5185 5183 5182 5181 5180 5179 5180 5180 5181 5182 5182 5183 5184 5185 5186 5186 5187 5188 5188 5190 5191 5192 5193 5194 5196 5198 5200 5202 5205 5208 5210 5215 5219 5224 5229 5233 5237 5240 5243 5246 5248 5249 5249
5169 5168 5167 5166 5165 5165 5165 5165 5166 5166 5167 5168 5169 5170 5170 5171 5172 5173 5174 5174 5175 5177 5178 5179 5181 5183 5186 5188 5190 5194 5197 5201 5205 5209 5214 5218 5221 5224 5227 5229 5231 5231 5232
5156 5155 5153 5152 5151 5151 5150 5151 5152 5152 5153 5154 5155 5155 5156 5157 5158 5159 5159 5160 5161 5163 5164 5165 5167 5169 5171 5174 5177 5180 5184 5188 5192 5196 5200 5203 5205 5208 5211 5213 5213 5214 5214